GFSFLT1_con_lsi_132.txt.gz
Lid_Strength_Index
5 5 5 4 4 3 3 3 2 2 2 2 1 2 1 1 1 1 1 1 1 1 1 0 -0 -0 -0 -0 -1 -1 -0 -1 -0
6 5 5 4 4 3 3 3 2 2 2 2 1 1 1 1 1 1 1 0 1 0 -0 0 -0 -0 -0 -0 -0 -0 -1 -0 -0
6 5 5 4 4 3 3 2 2 2 1 2 1 1 1 1 1 0 0 0 1 0 -0 -0 -0 -0 -0 -0 -1 -1 -0 -0 -0
6 5 5 4 4 3 3 2 2 2 2 2 1 1 1 1 1 0 0 1 0 0 -0 -0 -0 -0 -0 0 0 -0 -0 0 0
6 5 5 4 4 3 3 3 2 2 2 2 1 1 1 1 1 0 1 1 0 -0 0 -0 -0 -0 0 0 -0 -0 0 1 0
6 5 5 4 4 4 4 3 3 2 2 2 1 1 1 1 1 1 1 1 0 0 0 -0 -0 -0 0 0 0 0 0 0 0
6 6 5 5 4 4 3 3 3 2 2 1 1 1 1 1 1 1 1 1 0 0 0 0 -0 -0 0 0 0 0 0 0 0
6 6 6 5 5 4 4 3 3 2 2 2 1 2 2 1 1 1 1 1 0 0 0 0 0 0 0 -0 -0 0 0 0 0
7 7 6 5 4 4 4 3 3 2 2 2 1 2 2 1 1 1 1 1 1 1 1 0 0 0 0 1 2 5 4 3 2
7 6 6 5 5 4 4 3 3 3 2 2 2 2 2 1 2 2 2 2 2 2 1 1 2 1 2 2 3 6 6 4 3
6 6 5 5 4 4 3 2 3 2 2 2 2 2 2 1 2 2 2 1 1 1 1 1 1 2 3 4 6 8 8 6 4
5 6 5 4 3 3 3 2 2 2 2 2 2 3 2 2 1 2 2 2 1 1 1 1 3 4 5 5 7 8 7 5 3
6 5 5 5 3 3 3 2 2 2 3 3 3 2 2 1 1 1 2 1 1 1 1 3 5 7 8 8 8 8 7 5 1
6 6 7 5 4 4 4 2 2 3 3 3 2 1 1 1 1 2 1 1 2 3 4 6 7 8 8 9 8 8 8 6 3
6 7 6 6 7 6 5 3 2 3 4 3 2 1 2 2 1 1 2 3 3 4 5 7 8 9 9 9 9 9 9 8 7
6 6 7 6 6 7 6 5 4 5 4 4 3 4 5 5 5 4 2 3 4 5 6 7 8 8 8 8 8 9 10 9 8
6 6 6 6 6 7 7 6 5 5 5 5 6 7 7 7 7 9 9 9 7 5 5 6 7 7 6 8 9 11 11 10 8
6 6 7 6 6 6 6 6 5 5 5 5 7 7 8 8 8 10 11 13 12 11 13 12 8 6 6 9 10 12 12 12 10
5 6 6 6 6 6 6 7 6 6 6 4 5 6 7 8 8 9 10 10 11 13 13 13 13 13 11 13 13 14 14 15 14
5 5 5 6 6 6 6 6 6 6 4 5 5 5 8 8 8 9 10 10 9 9 11 13 13 13 13 13 14 14 15 15 14

GFSFLT1_con_lsi_135.txt.gz
Lid_Strength_Index
5 4 4 4 3 3 2 2 1 1 1 1 1 0 0 -0 -0 0 0 0 0 0 0 -0 -1 -1 -1 -1 -1 -1 -1 -1 -1
6 5 4 4 3 2 2 2 2 1 1 1 1 0 0 0 -0 -0 0 -0 -0 -0 -1 -0 -1 -1 -1 -1 -1 -1 -1 -0 -0
5 4 4 3 3 3 2 2 1 1 1 1 1 0 0 0 0 -0 -0 -0 -0 -0 -1 -1 -1 -1 -1 -1 -1 -1 -1 -0 -1
5 5 4 4 3 2 2 1 1 1 1 1 1 1 0 0 0 -0 -0 -0 -0 -0 -1 -1 -1 -1 -1 -1 -0 -1 -0 -1 -0
5 4 4 4 3 3 2 2 2 1 1 1 1 0 0 0 0 -0 0 0 -0 -1 -0 -1 -1 -1 -0 -1 -0 -1 -0 0 -0
5 4 4 3 3 3 3 2 2 2 1 1 1 0 1 1 0 0 0 0 -0 -0 -0 -1 -0 -1 -0 -0 -0 -0 -1 -0 -0
6 5 4 4 4 4 3 3 2 2 1 1 1 1 1 1 1 0 0 -0 -0 -0 -0 -0 -0 -0 -0 -0 -0 -0 -0 -0 -0
6 5 5 4 4 4 3 3 2 2 2 1 1 1 1 1 0 0 -0 0 -0 -0 -0 -0 -0 -1 -0 -1 -0 -0 -0 -0 -0
7 6 5 4 4 4 3 3 2 2 2 1 1 1 1 1 0 0 0 0 0 -0 0 -0 -0 0 -0 -0 -0 5 4 2 -0
7 6 5 5 4 3 3 2 2 2 2 1 1 2 1 1 1 1 0 0 0 0 0 -0 0 -0 -0 0 -0 5 5 4 -0
6 6 5 4 4 3 3 2 2 2 1 1 1 1 1 1 1 1 1 1 1 0 0 0 0 0 0 -0 3 8 7 5 -0
5 6 4 4 3 3 2 2 2 2 2 2 2 2 2 1 1 1 1 2 1 1 1 1 1 0 1 1 2 8 7 5 -0
6 5 5 4 3 2 2 2 2 2 2 2 2 2 2 1 1 1 2 2 1 1 1 2 4 6 6 8 5 7 8 5 0
5 5 5 4 3 3 3 2 2 2 2 3 1 1 1 1 1 1 1 1 1 1 3 4 6 7 7 7 8 5 8 6 1
6 6 6 5 5 3 3 2 2 2 3 1 1 1 1 1 1 1 1 2 3 3 4 6 7 7 8 7 7 9 9 8 6
5 5 6 5 5 6 4 3 3 4 3 3 1 2 4 3 3 3 2 3 4 5 5 6 7 7 7 7 8 8 10 9 8
4 4 5 5 5 5 5 4 3 4 4 4 5 5 6 7 7 7 7 6 4 4 4 5 4 5 6 7 7 8 8 8 6
4 4 3 3 4 5 5 4 3 3 5 5 6 6 7 7 7 9 10 11 10 10 11 10 5 5 7 9 10 13 13 13 10
3 4 3 3 3 4 4 4 4 4 4 5 6 7 7 7 7 7 8 8 10 11 12 13 13 13 11 12 13 14 14 14 14
4 3 3 4 3 3 3 3 4 3 4 3 2 4 5 6 6 5 6 5 5 7 10 12 13 13 12 12 11 13 14 14 13

GFSFLT1_con_lsi_138.txt.gz
Lid_Strength_Index
5 4 3 3 2 2 2 1 1 1 1 1 0 -0 -0 -1 -1 -0 -0 -0 -0 -0 -0 -0 -2 -1 -1 -2 -2 -2 -2 -1 -1
5 4 3 3 2 2 2 1 1 1 1 1 0 0 -0 -0 -1 -1 -0 -1 -1 -0 -1 -1 -1 -1 -1 -1 -1 -1 -2 -1 -1
5 4 3 3 2 2 1 1 1 1 0 1 0 -0 -0 -0 -0 -1 -1 -1 -1 -1 -1 -1 -1 -1 -1 -1 -1 -1 -1 -1 -1
5 5 4 3 2 2 1 1 1 1 1 1 1 0 -0 -0 -0 -0 -1 -0 -1 -1 -1 -1 -1 -1 -1 -1 -1 -1 -1 -1 -1
5 4 3 3 2 2 2 1 1 1 1 1 0 0 0 0 -0 -0 -0 -0 -1 -1 -1 -1 -1 -1 -1 -1 -1 -1 -1 -0 -1
6 5 4 4 3 2 2 2 1 1 1 1 0 0 0 0 0 0 -0 -0 -1 -1 -1 -1 -1 -1 -1 -1 -1 -1 -1 -1 -0
6 5 4 4 3 3 2 1 2 1 1 0 0 0 0 0 0 0 0 -0 -1 -1 -1 -1 -1 -1 -1 -1 -1 -1 -1 -1 -1
6 5 4 4 4 3 2 2 2 1 1 1 0 1 1 0 -0 -0 -0 -0 -0 -1 -1 -1 -1 -0 -1 -1 -1 -0 -1 -1 -0
6 5 4 4 3 3 3 2 2 1 1 1 0 1 1 0 0 0 0 -0 -0 -0 -0 -0 -1 -0 -0 -0 -1 4 4 1 -0
6 6 4 4 3 3 3 2 2 2 1 1 1 1 1 1 0 0 0 -0 -0 0 0 -0 -0 -0 -0 -0 2 7 6 4 -0
6 6 5 4 3 3 3 2 2 1 1 1 2 1 1 1 1 1 0 0 0 0 -0 -0 0 -0 -0 -0 2 8 7 6 -1
5 5 4 3 3 2 2 2 2 2 2 2 1 2 1 1 1 1 1 1 1 1 0 0 -0 -0 -0 -0 -0 7 7 3 -0
4 4 4 3 3 2 2 2 1 2 2 2 2 1 1 1 0 1 1 1 1 1 1 1 2 4 4 6 3 8 8 4 0
4 3 4 3 2 3 2 2 2 3 2 2 1 1 0 0 1 1 0 0 0 1 2 3 5 6 6 7 8 6 9 7 0
5 4 4 3 3 3 2 1 1 2 2 1 1 1 1 0 0 0 1 2 3 4 4 6 7 8 7 6 6 9 9 8 7
4 4 5 4 3 3 2 1 1 2 2 1 1 1 1 1 1 2 1 2 3 4 5 6 7 7 7 7 7 7 9 9 8
4 4 4 4 5 5 4 3 2 2 3 0 1 2 3 3 4 6 5 3 2 3 4 5 5 5 5 6 5 5 4 3 4
3 3 3 3 4 4 4 3 4 4 4 3 2 3 5 6 7 8 10 10 8 6 7 7 3 4 6 7 8 9 10 8 4
2 3 2 2 2 3 3 2 2 2 3 4 5 6 6 6 6 7 8 8 8 12 12 13 13 13 10 10 12 13 14 14 13
3 2 2 2 2 2 2 2 2 1 1 2 4 5 5 4 3 2 2 2 3 4 8 12 12 12 13 11 11 13 14 13 13

GFSFLT1_con_lsi_141.txt.gz
Lid_Strength_Index
4 4 3 4 3 3 2 2 1 1 1 1 0 0 0 -1 -1 0 0 -0 -0 0 -0 -0 -1 -1 -2 -2 -1 -1 -2 -1 -0
5 4 3 3 2 3 2 2 1 1 1 1 0 0 -0 -0 -0 -0 -0 -1 -1 -0 -1 -0 -1 -1 -1 -1 -1 -1 -2 -0 -1
5 4 4 3 3 2 2 1 1 0 0 1 0 -0 0 0 -0 -1 -1 -0 -1 -1 -0 -1 -1 -1 -1 -1 -1 -1 -1 -1 -1
5 4 4 3 3 2 2 2 1 1 1 1 1 0 -0 0 -0 -0 -0 -0 -1 -1 -1 -1 -1 -1 -1 -1 -1 -1 -1 -1 -1
5 5 4 3 3 2 2 2 2 1 1 1 0 0 0 0 -0 -0 -0 -0 -0 -1 -1 -1 -1 -1 -1 -1 -1 -1 -1 -0 -0
5 5 5 3 2 3 3 2 1 1 1 1 0 0 0 0 0 0 0 -0 -1 -1 -1 -1 -1 -1 -0 -1 -1 -1 -1 -1 -0
5 5 5 4 3 3 3 2 1 1 1 1 0 0 0 1 0 0 0 -0 -0 -1 -1 -1 -1 -1 -1 -1 -1 -1 -0 -1 -0
5 6 5 5 4 3 2 2 2 1 1 1 0 1 1 1 0 -0 -0 -0 -0 -0 -1 -0 -1 -1 -0 -1 -0 -0 -0 -1 -0
6 6 5 5 4 4 3 2 2 1 1 1 0 1 1 0 0 0 -0 -0 -0 -0 -0 -0 -1 -0 -0 -0 -0 4 3 1 -0
6 6 5 4 3 3 3 2 2 2 1 1 1 1 1 1 0 1 0 -0 -0 0 0 -0 -0 -0 -0 -0 -0 7 5 4 -0
6 5 5 4 3 3 2 1 2 1 1 1 1 1 1 1 0 1 0 0 1 0 -0 0 0 -0 -0 -0 4 8 7 5 -0
5 5 4 4 2 2 2 2 1 2 1 1 2 1 1 1 1 1 1 1 1 0 0 0 0 0 1 1 4 7 6 4 -0
4 4 4 3 2 2 2 2 2 2 2 2 3 1 1 1 1 1 1 1 0 1 0 1 0 3 3 6 3 8 7 4 0
3 4 4 3 2 3 2 1 1 2 2 3 2 1 1 1 0 0 0 0 0 0 1 1 3 5 5 5 7 6 9 7 0
4 4 3 3 3 3 2 2 2 2 3 1 1 1 1 1 0 0 0 1 1 3 5 6 6 6 7 6 7 8 8 8 7
4 4 4 3 3 3 2 1 1 2 2 1 1 1 1 1 1 1 0 1 2 3 4 6 7 7 7 7 6 7 8 8 7
4 4 4 3 3 3 3 2 2 2 1 1 1 1 1 2 3 2 1 1 1 2 3 5 5 6 6 6 5 4 4 4 5
3 3 4 4 4 3 4 3 4 3 1 1 2 3 3 3 4 6 7 7 7 3 6 7 3 3 4 6 6 8 11 11 5
3 3 3 3 3 3 3 3 3 4 3 1 2 3 3 4 4 3 4 4 6 12 12 13 13 13 9 10 12 13 13 14 13
3 3 3 3 3 2 2 2 2 2 1 1 2 3 3 2 2 2 2 2 2 3 7 11 12 13 11 11 12 12 13 13 12

GFSFLT1_con_lsi_147.txt.gz
Lid_Strength_Index
5 5 4 4 4 3 3 2 2 2 2 2 2 1 1 1 1 1 1 1 1 1 1 1 0 0 0 0 0 0 0 1 1
6 5 5 4 4 3 3 3 2 2 2 2 2 1 1 1 1 2 2 1 1 1 0 0 0 0 0 0 0 0 0 1 1
6 5 4 4 4 3 3 2 2 2 2 2 2 1 1 1 1 1 1 1 1 1 1 1 1 0 0 0 0 0 0 1 1
6 5 5 4 4 3 3 2 2 2 2 2 2 1 1 1 1 1 1 1 1 1 1 1 1 1 0 1 0 0 1 1 1
5 5 4 4 4 3 3 3 3 2 2 2 2 1 1 1 1 1 1 1 1 0 1 0 0 0 1 1 1 1 1 1 1
6 6 5 5 4 4 3 3 3 2 2 2 1 1 1 1 1 1 1 1 1 1 1 1 0 0 1 1 1 1 1 1 1
6 6 6 5 5 4 3 3 3 3 2 2 1 1 2 2 2 1 1 1 1 1 0 1 1 1 1 1 1 1 1 1 1
6 6 6 5 5 5 4 3 3 3 4 4 2 2 2 2 1 1 1 1 1 1 1 1 1 1 1 1 1 0 3 2 1
7 6 6 5 4 4 4 3 4 3 4 5 3 2 2 2 1 1 1 1 1 1 1 1 1 1 1 1 0 4 3 3 1
6 6 6 5 5 4 4 3 3 3 2 3 2 2 2 2 2 2 1 1 1 1 1 1 1 1 1 1 6 7 6 4 2
6 6 5 5 4 4 3 3 2 2 2 2 3 2 2 2 2 2 2 1 2 2 1 1 2 1 1 5 6 6 6 5 3
5 5 4 4 3 3 3 3 2 3 3 2 2 2 2 2 2 2 2 3 2 2 2 2 3 3 3 5 5 6 6 4 1
5 4 4 4 3 3 3 3 2 3 3 3 3 2 2 2 2 3 2 2 2 2 3 3 4 5 4 5 6 8 7 5 1
4 4 4 3 3 3 3 2 3 6 5 3 3 2 2 2 1 2 2 3 2 3 4 4 5 5 5 6 7 7 8 6 3
4 4 4 3 3 3 3 2 3 3 4 2 1 1 2 2 2 2 3 3 4 4 5 5 5 5 6 6 7 8 8 8 7
4 5 4 3 3 4 3 3 3 3 3 2 2 2 2 2 2 2 3 3 4 4 4 5 5 6 6 6 6 7 8 8 7
4 4 4 3 4 4 5 3 2 2 2 2 2 2 2 2 2 3 3 3 4 4 5 5 5 5 5 5 5 5 5 6 6
4 4 4 3 4 5 5 4 3 3 3 3 4 4 4 5 5 6 9 11 10 7 10 7 4 4 5 6 7 10 12 10 6
4 4 3 4 3 4 4 4 3 3 4 4 4 4 4 5 6 6 6 7 9 12 12 12 13 11 9 13 11 12 13 11 10
4 3 3 3 3 3 3 3 3 2 2 2 3 3 4 4 4 4 5 5 6 8 10 11 12 13 12 11 12 12 12 11 9